This demonstration page uses our WeatherBlox Daily Observations layout. Learn more.

Hourly Observations for March 17, 2019

Temp ( °F °C ) Dew Point ( °F °C ) Humidity (%) Winds ( mph kmh ) Pressure ( in mb ) Visibility ( mi km ) Precip ( " mm )
12:15 am 00:15 Clear 32 -0.2 26 -3.4 79 79 NE 5 7 30.46 1031 10 16.0934 0 0
12:35 am 00:35 Clear 31 -0.5 26 -3.2 82 82 NNE 6 9 30.46 1032 10 16.0934 0 0
12:55 am 00:55 Clear 30 -1 26 -3.4 84 84 NE 6 9 30.47 1032 10 16.0934 0 0
1:15 am 01:15 Clear 30 -0.9 26 -3.6 82 82 NE 5 7 30.45 1031 10 16.0934 0 0
1:35 am 01:35 Clear 31 -0.6 26 -3.5 81 81 NE 5 7 30.45 1031 10 16.0934 0 0
1:55 am 01:55 Clear 31 -0.6 26 -3.4 82 82 ENE 3 6 30.45 1031 10 16.0934 0 0
2:15 am 02:15 Clear 29 -1.4 26 -3.2 88 88 NE 3 6 30.45 1031 10 16.0934 0 0
2:35 am 02:35 Clear 29 -1.7 27 -3 91 91 ENE 3 6 30.45 1031 10 16.0934 0 0
2:55 am 02:55 Clear 29 -1.6 26 -3.1 90 90 ENE 5 7 30.45 1031 10 16.0934 0 0
3:15 am 03:15 Clear 29 -1.7 27 -3 91 91 NE 5 7 30.45 1031 10 16.0934 0 0
3:35 am 03:35 Clear 28 -2.3 26 -3.1 94 94 NE 3 6 30.45 1031 10 16.0934 0 0
3:55 am 03:55 Clear 28 -2 26 -3.2 92 92 NE 5 7 30.44 1031 10 16.0934 0 0
4:15 am 04:15 Clear 27 -2.6 26 -3.5 94 94 ENE 5 7 30.43 1031 10 16.0934 0 0
4:35 am 04:35 Clear 28 -2.4 26 -3.1 95 95 ENE 5 7 30.43 1030 10 16.0934 0 0
4:55 am 04:55 Clear 28 -2.1 27 -2.9 94 94 Calm 30.42 1030 10 16.0934 0 0
5:15 am 05:15 Clear 28 -2.1 27 -3 94 94 Calm 30.42 1030 10 16.0934 0 0
5:35 am 05:35 Clear 28 -2.2 27 -3 94 94 Calm 30.42 1030 10 16.0934 0 0
5:55 am 05:55 Clear 28 -2.2 27 -2.7 96 96 Calm 30.42 1030 10 16.0934 0 0
6:15 am 06:15 Clear 28 -2.4 27 -2.6 99 99 Calm 30.42 1030 10 16.0934 0 0
6:35 am 06:35 Clear 28 -2.3 27 -2.7 97 97 SW 6 9 30.43 1030 10 16.0934 0 0
6:55 am 06:55 Clear 28 -2 28 -2.5 96 96 SSW 3 6 30.43 1030 10 16.0934 0 0
7:15 am 07:15 Clear 28 -2.2 27 -2.8 96 96 SSW 5 7 30.44 1031 10 16.0934 0 0
7:35 am 07:35 Clear 28 -2.1 27 -2.6 96 96 SW 5 7 30.44 1031 10 16.0934 0 0
7:55 am 07:55 Sunny 29 -1.9 28 -2.4 96 96 SW 6 9 30.43 1031 10 16.0934 0 0
8:15 am 08:15 Sunny 29 -1.4 28 -2.3 94 94 WSW 7 11 30.44 1031 10 16.0934 0 0
8:35 am 08:35 Sunny 30 -1 28 -2.5 90 90 SW 7 11 30.45 1031 10 16.0934 0 0
8:55 am 08:55 Sunny 31 -0.3 28 -2.1 88 88 WSW 6 9 30.44 1031 10 16.0934 0 0
9:15 am 09:15 Sunny 32 0 29 -1.6 89 89 WSW 3 6 30.44 1031 10 16.0934 0 0
9:35 am 09:35 Sunny 33 0.7 29 -1.6 85 85 WSW 7 11 30.43 1030 10 16.0934 0 0
9:55 am 09:55 Sunny 34 1.3 29 -1.4 82 82 WSW 5 7 30.42 1030 10 16.0934 0 0
10:15 am 10:15 Sunny 36 2 31 -0.8 82 82 SW 6 9 30.42 1030 10 16.0934 0 0
10:35 am 10:35 Sunny 36 2.3 29 -1.7 75 75 SW 7 11 30.41 1030 10 16.0934 0 0
10:55 am 10:55 Sunny 37 3 29 -1.4 73 73 SW 6 9 30.41 1030 10 16.0934 0 0
11:15 am 11:15 Sunny 38 3.6 30 -1.3 71 71 SW 6 9 30.4 1030 10 16.0934 0 0
11:35 am 11:35 Sunny 39 4 31 -0.7 72 72 SW 8 13 30.39 1029 10 16.0934 0 0
11:55 am 11:55 Sunny 40 4.5 31 -0.7 69 69 SW 8 13 30.38 1029 10 16.0934 0 0
12:15 pm 12:15 Sunny 40 4.7 30 -0.9 67 67 SW 8 13 30.37 1028 10 16.0934 0 0
12:35 pm 12:35 Sunny 41 5.2 31 -0.4 67 67 SW 6 9 30.37 1028 10 16.0934 0 0
12:55 pm 12:55 Sunny 42 5.8 32 -0.2 66 66 SW 7 11 30.35 1028 10 16.0934 0 0
1:15 pm 13:15 Sunny 43 6.3 32 0 64 64 SW 6 9 30.35 1028 10 16.0934 0 0
1:35 pm 13:35 Sunny 45 7.2 31 -0.3 59 59 SW 7 11 30.34 1027 10 16.0934 0 0
1:55 pm 13:55 Sunny 46 7.6 32 0 59 59 SSW 8 13 30.32 1027 10 16.0934 0 0
2:15 pm 14:15 Sunny 46 7.5 32 0 59 59 SW 10 17 30.32 1027 10 16.0934 0 0
2:35 pm 14:35 Sunny 46 8 32 -0.2 57 57 SW 10 17 30.3 1026 10 16.0934 0 0
2:55 pm 14:55 Sunny 48 8.7 33 0.5 57 57 SW 9 15 30.28 1026 10 16.0934 0 0
3:15 pm 15:15 Sunny 49 9.2 33 0.4 54 54 SSW 9 15 30.27 1025 10 16.0934 0 0
3:35 pm 15:35 Sunny 50 9.8 33 0.7 53 53 SW 5 7 30.26 1025 10 16.0934 0 0
3:55 pm 15:55 Sunny 50 10.2 34 1.2 54 54 W 8 13 30.25 1024 10 16.0934 0 0
4:15 pm 16:15 Sunny 51 10.6 35 1.6 54 54 W 6 9 30.25 1024 10 16.0934 0 0
4:35 pm 16:35 Sunny 52 10.9 35 1.8 54 54 W 7 11 30.24 1024 10 16.0934 0 0
4:55 pm 16:55 Sunny 52 10.9 35 1.6 53 53 SW 8 13 30.24 1024 10 16.0934 0 0
5:15 pm 17:15 Sunny 53 11.5 36 2.4 54 54 SW 7 11 30.23 1024 10 16.0934 0 0
5:35 pm 17:35 Sunny 53 11.4 36 2.1 53 53 SW 6 9 30.23 1024 10 16.0934 0 0
5:55 pm 17:55 Partly Cloudy 53 11.5 36 2.1 53 53 SW 5 7 30.23 1024 10 16.0934 0 0
6:15 pm 18:15 Mostly Cloudy 52 11.3 36 2.2 54 54 SW 6 9 30.23 1024 10 16.0934 0 0
6:35 pm 18:35 Partly Cloudy 51 10.8 35 1.8 54 54 Calm 30.24 1024 10 16.0934 0 0
6:55 pm 18:55 Sunny 49 9.6 37 2.8 63 63 W 3 6 30.26 1025 10 16.0934 0 0
7:15 pm 19:15 Sunny 49 9.7 38 3.1 64 64 W 3 6 30.26 1025 10 16.0934 0 0
7:35 pm 19:35 Mostly Cloudy 51 10.4 36 2.1 57 57 NNW 10 17 30.27 1025 10 16.0934 0 0
7:55 pm 19:55 Partly Cloudy 46 7.6 35 1.6 66 66 N 13 20 30.31 1027 10 16.0934 0 0
8:15 pm 20:15 Clear 43 6.1 34 1.2 71 71 N 13 20 30.34 1027 10 16.0934 0 0
8:35 pm 20:35 Clear 42 5.5 34 1 73 73 N 12 19 30.35 1028 10 16.0934 0 0
8:55 pm 20:55 Clear 40 4.2 34 1.2 81 81 NNE 12 19 30.37 1028 10 16.0934 0 0
9:15 pm 21:15 Clear 40 4.5 33 0.7 77 77 NNE 15 24 30.38 1029 10 16.0934 0 0
9:35 pm 21:35 Clear 39 3.8 33 0.3 78 78 NNE 14 22 30.4 1029 10 16.0934 0 0
9:55 pm 21:55 Clear 38 3.1 32 0.2 81 81 NNE 14 22 30.42 1030 10 16.0934 0 0
10:15 pm 22:15 Clear 37 2.7 32 0 83 83 NNE 16 26 30.42 1030 10 16.0934 0 0
10:35 pm 22:35 Clear 36 2 32 -0.1 86 86 N 15 24 30.44 1031 10 16.0934 0 0
10:55 pm 22:55 Clear 35 1.5 31 -0.6 86 86 N 13 20 30.45 1031 10 16.0934 0 0
11:15 pm 23:15 Clear 35 1.5 30 -1 84 84 N 15 24 30.45 1031 10 16.0934 0 0
11:35 pm 23:35 Clear 34 1.1 30 -1.2 85 85 N 15 24 30.47 1032 10 16.0934 0 0
11:55 pm 23:55 Clear 33 0.8 29 -1.5 85 85 NNE 16 26 30.47 1032 10 16.0934 0 0

Powered by AerisWeather